DW0835 Weather Reports


Display with metric or nautical units.
time (UTC)temp
F
wind
direction
speed
MPH
gust
MPH
rain 1hr
in
rain 24hr
in
rain mn
in
humidity
%
barometer
mb
20200216220029 33 0.0 2.0 0.00 0.00 0.00 64 1018.2
20200216215019 33 0.0 3.0 0.00 0.00 0.00 62 1018.1
20200216214019 33 0.0 0.0 0.00 0.00 0.00 62 1018.2
20200216213028 33 0.0 1.0 0.00 0.00 0.00 63 1018.2
20200216212028 32 0.0 0.0 0.00 0.00 0.00 64 1018.2
20200216211019 32 0.0 0.0 0.00 0.00 0.00 64 1018.2
20200216210028 32 0.0 3.0 0.00 0.00 0.00 64 1018.2
20200216205028 32 0.0 1.0 0.00 0.00 0.00 64 1018.1
20200216204028 32 0.0 0.0 0.00 0.00 0.00 63 1018.2
20200216203019 32 0.0 3.0 0.00 0.00 0.00 62 1018.2
20200216202029 32 0.0 2.0 0.00 0.00 0.00 61 1018.3
20200216201028 32 0.0 2.0 0.00 0.00 0.00 61 1018.2
20200216200028 32 0.0 3.0 0.00 0.00 0.00 61 1018.2
20200216195019 32 0.0 2.0 0.00 0.00 0.00 61 1018.4
20200216194019 31 0.0 3.0 0.00 0.00 0.00 61 1018.4
20200216193028 31 0.0 5.0 0.00 0.00 0.00 60 1018.4
20200216192019 31 0.0 1.0 0.00 0.00 0.00 62 1018.5
20200216191019 31 0.0 1.0 0.00 0.00 0.00 62 1018.3
20200216190028 31 0.0 2.0 0.00 0.00 0.00 61 1018.3
20200216185028 31 0.0 2.0 0.00 0.00 0.00 61 1018.7
20200216184028 31 0.0 2.0 0.00 0.00 0.00 61 1018.7
20200216183018 31 90 1.0 3.0 0.00 0.00 0.00 61 1018.7
20200216182028 31 90 1.0 4.0 0.00 0.00 0.00 61 1018.7
20200216181028 31 0.0 2.0 0.00 0.00 0.00 61 1018.9
20200216180028 30 0.0 2.0 0.00 0.00 0.00 60 1018.9
20200216175018 30 0.0 3.0 0.00 0.00 0.00 60 1019.2
20200216174028 30 0.0 3.0 0.00 0.00 0.00 60 1019.2
20200216173018 31 0.0 3.0 0.00 0.00 0.00 58 1019.2
20200216172028 31 0.0 0.0 0.00 0.00 0.00 57 1019.3
20200216171019 30 0.0 2.0 0.00 0.00 0.00 57 1019.3
20200216170028 30 0.0 2.0 0.00 0.00 0.00 56 1019.3
20200216165028 30 0.0 2.0 0.00 0.00 0.00 56 1019.3
20200216164028 30 0.0 2.0 0.00 0.00 0.00 56 1019.3
20200216163028 30 0.0 2.0 0.00 0.00 0.00 57 1019.3
20200216162019 30 0.0 3.0 0.00 0.00 0.00 59 1019.2
20200216161018 29 0.0 1.0 0.00 0.00 0.00 62 1019.2
20200216160028 29 0.0 0.0 0.00 0.00 0.00 65 1019.2
20200216155027 29 338 1.0 3.0 0.00 0.00 0.00 67 1019.1
20200216154028 28 0.0 4.0 0.00 0.00 0.00 67 1018.9
20200216153028 28 0.0 5.0 0.00 0.00 0.00 67 1018.9
20200216152018 28 338 1.0 3.0 0.00 0.00 0.00 67 1018.8
20200216151028 28 338 1.0 3.0 0.00 0.00 0.00 68 1018.9
20200216150018 28 315 1.0 4.0 0.00 0.00 0.00 71 1018.9
20200216145028 27 0.0 2.0 0.00 0.00 0.00 72 1018.6
20200216144018 27 0.0 2.0 0.00 0.00 0.00 75 1018.6
20200216143027 27 0.0 2.0 0.00 0.00 0.00 75 1018.6
20200216142028 27 315 1.0 3.0 0.00 0.00 0.00 77 1018.6
20200216141018 26 0.0 0.0 0.00 0.00 0.00 79 1018.5
20200216140018 26 0.0 1.0 0.00 0.00 0.00 80 1018.5
20200216135027 25 0.0 0.0 0.00 0.00 0.00 81 1018.0
20200216134027 25 0.0 0.0 0.00 0.00 0.00 81 1017.9
20200216133027 25 0.0 0.0 0.00 0.00 0.00 80 1017.9
20200216132018 25 0.0 0.0 0.00 0.00 0.00 81 1017.7
20200216131018 25 0.0 0.0 0.00 0.00 0.00 81 1017.3
20200216130027 25 0.0 2.0 0.00 0.00 0.00 82 1017.3
20200216125027 25 0.0 0.0 0.00 0.00 0.00 83 1017.3
20200216124018 25 0.0 2.0 0.00 0.00 0.00 84 1017.1
20200216123027 25 0.0 1.0 0.00 0.00 0.00 84 1017.1
20200216122027 25 0.0 1.0 0.00 0.00 0.00 84 1017.0
20200216121017 25 0.0 2.0 0.00 0.00 0.00 84 1017.0
20200216120017 25 0.0 3.0 0.00 0.00 0.00 84 1017.0
20200216115018 25 0.0 1.0 0.00 0.00 0.00 84 1016.9
20200216114027 25 0.0 0.0 0.00 0.00 0.00 84 1016.8
20200216113027 25 0.0 1.0 0.00 0.00 0.00 84 1016.8
20200216112017 25 0.0 1.0 0.00 0.00 0.00 84 1016.6
20200216111027 25 0.0 0.0 0.00 0.00 0.00 84 1016.7
20200216110018 26 0.0 3.0 0.00 0.00 0.00 84 1016.7
20200216105017 26 0.0 3.0 0.00 0.00 0.00 84 1016.6
20200216104018 26 0.0 3.0 0.00 0.00 0.00 84 1016.7
20200216103018 26 0.0 3.0 0.00 0.00 0.00 84 1016.7
20200216102027 26 0.0 2.0 0.00 0.00 0.00 85 1016.6
20200216101018 26 0.0 2.0 0.00 0.00 0.00 85 1016.3
20200216100027 26 0.0 3.0 0.00 0.00 0.00 85 1016.3
20200216095017 26 0.0 2.0 0.00 0.00 0.00 85 1016.1
20200216094018 26 0.0 2.0 0.00 0.00 0.00 85 1016.1
20200216093017 26 0.0 3.0 0.00 0.00 0.00 85 1016.1
20200216092027 26 0.0 2.0 0.00 0.00 0.00 85 1016.3
20200216091027 26 0.0 1.0 0.00 0.00 0.00 85 1016.4
20200216090017 27 0.0 3.0 0.00 0.00 0.00 85 1016.4
20200216085018 27 0.0 2.0 0.00 0.00 0.00 84 1016.1
20200216084017 27 0.0 2.0 0.00 0.00 0.00 84 1016.2
20200216083027 27 270 1.0 4.0 0.00 0.00 0.00 84 1016.1
20200216082027 27 248 1.0 4.0 0.00 0.00 0.00 84 1016.4
20200216081018 27 0.0 2.0 0.00 0.00 0.00 83 1016.2
20200216080027 27 0.0 3.0 0.00 0.00 0.00 84 1016.2
20200216075026 27 0.0 3.0 0.00 0.00 0.00 84 1016.1
20200216074028 27 0.0 2.0 0.00 0.00 0.00 83 1015.9
20200216073017 28 248 1.0 3.0 0.00 0.00 0.00 83 1015.9
20200216072027 28 0.0 3.0 0.00 0.00 0.00 83 1015.8
20200216071028 28 0.0 3.0 0.00 0.00 0.00 83 1015.7
20200216070028 28 270 1.0 3.0 0.00 0.00 0.00 83 1015.7
20200216065017 28 248 1.0 3.0 0.00 0.00 0.00 83 1015.7
20200216064026 28 248 1.0 3.0 0.00 0.00 0.00 83 1015.6
20200216063020 28 248 1.0 4.0 0.00 0.00 0.00 83 1015.6
20200216062017 28 225 1.0 7.0 0.00 0.00 0.00 83 1015.7
20200216061017 28 293 1.0 3.0 0.00 0.00 0.00 83 1015.6
20200216060028 28 248 1.0 3.0 0.00 0.00 0.00 83 1015.6
20200216055028 28 248 1.0 3.0 0.00 0.00 0.00 83 1015.6
20200216054027 28 248 1.0 5.0 0.00 0.00 0.00 83 1015.3
20200216053027 28 248 1.0 4.0 0.00 0.00 0.00 83 1015.3
20200216052027 28 248 1.0 3.0 0.00 0.00 0.00 83 1015.3
20200216051018 28 248 1.0 4.0 0.00 0.00 0.00 83 1015.3
20200216050018 28 270 1.0 3.0 0.00 0.00 0.00 83 1015.3
20200216045027 28 248 1.0 3.0 0.00 0.00 0.00 82 1015.4
20200216044027 28 270 1.0 3.0 0.00 0.00 0.00 82 1015.3
20200216043027 28 225 1.0 4.0 0.00 0.00 0.00 82 1015.3
20200216042027 28 248 1.0 3.0 0.00 0.00 0.00 82 1015.3
20200216041027 28 248 2.0 6.0 0.00 0.00 0.00 82 1015.3
20200216040018 28 248 2.0 8.0 0.00 0.00 0.00 82 1015.3
20200216035017 28 270 2.0 5.0 0.00 0.00 0.00 81 1015.3
20200216034027 28 270 2.0 6.0 0.00 0.00 0.00 81 1015.2
20200216033017 29 248 1.0 3.0 0.00 0.00 0.00 81 1015.2
20200216032027 29 248 2.0 6.0 0.00 0.00 0.00 81 1015.1
20200216031017 29 248 2.0 8.0 0.00 0.00 0.00 81 1015.0
20200216030027 29 225 1.0 7.0 0.00 0.00 0.00 80 1014.9
20200216025018 29 248 2.0 7.0 0.00 0.00 0.00 80 1014.7
20200216024027 29 270 2.0 7.0 0.00 0.00 0.00 79 1014.6
20200216023027 29 248 2.0 6.0 0.00 0.00 0.00 79 1014.6
20200216022027 29 270 2.0 4.0 0.00 0.00 0.00 78 1014.6
20200216021025 29 248 2.0 7.0 0.00 0.00 0.00 78 1014.6
20200216020018 29 270 1.0 5.0 0.00 0.00 0.00 77 1014.6
20200216015027 29 248 2.0 5.0 0.00 0.00 0.00 77 1014.4
20200216014029 29 270 2.0 5.0 0.00 0.00 0.00 77 1014.2
20200216013019 29 270 2.0 6.0 0.00 0.00 0.00 76 1014.1
20200216012027 29 248 2.0 6.0 0.00 0.00 0.00 76 1014.1
20200216011017 30 248 2.0 4.0 0.00 0.00 0.00 76 1014.0
20200216010019 30 248 2.0 6.0 0.00 0.00 0.00 75 1014.0
20200216005018 30 248 2.0 4.0 0.00 0.00 0.00 75 1014.0
20200216004027 30 270 2.0 5.0 0.00 0.00 0.00 75 1013.6
20200216003029 30 270 1.0 5.0 0.00 0.00 0.00 74 1013.6
20200216002028 30 270 2.0 6.0 0.00 0.00 0.00 74 1013.5
20200216001028 30 225 2.0 8.0 0.00 0.00 0.00 74 1013.5
20200216000019 30 270 2.0 6.0 0.00 0.00 0.00 73 1013.5
20200215235028 30 248 2.0 7.0 0.00 0.00 0.00 73 1013.2
20200215234029 31 270 1.0 5.0 0.00 0.00 0.00 72 1013.2
20200215233019 31 248 3.0 7.0 0.00 0.00 0.00 72 1013.2
20200215232028 31 248 2.0 5.0 0.00 0.00 0.00 71 1013.0
20200215231018 31 225 2.0 5.0 0.00 0.00 0.00 71 1012.7
20200215230028 31 248 3.0 13.0 0.00 0.00 0.00 71 1012.7
20200215225028 31 248 4.0 10.0 0.00 0.00 0.00 70 1012.6
20200215224019 32 248 4.0 14.0 0.00 0.00 0.00 70 1012.6
20200215223018 32 248 3.0 14.0 0.00 0.00 0.00 69 1012.5
20200215222019 32 248 4.0 12.0 0.00 0.00 0.00 69 1012.4
20200215221028 32 248 5.0 16.0 0.00 0.00 0.00 69 1012.5